contact:dominique.lefevre@mio.osupytheas.fr, maurice.libes@osupytheas.fr, didier.mallarino@osupytheas.fr
Project:EMSO http://www.emso-fr.org/EMSO-France
Depth: 2436.0 m
Title:EMSO Ligure Ouest : Data MII capteur MICROCAT
DateTime_Computer,Latitude,Longitude,Temperature,Conductivity,Pressure,DateTime_Instrument
DateTime_Computer,Latitude,Longitude,degC,S m-1,dbar,DateTime_Instrument
2019-11-05T00:02:17Z,42.805,6.029,13.2992,4.59995,2469.984,2019-11-05T02:02:44Z
2019-11-05T00:05:21Z,42.805,6.029,13.2990,4.60005,2469.937,2019-11-05T02:05:48Z
2019-11-05T00:08:24Z,42.805,6.029,13.2995,4.59986,2469.984,2019-11-05T02:08:51Z
2019-11-05T00:11:27Z,42.805,6.029,13.3033,4.59994,2469.914,2019-11-05T02:11:54Z
2019-11-05T00:14:30Z,42.805,6.029,13.2990,4.59996,2469.96,2019-11-05T02:14:57Z
2019-11-05T00:17:33Z,42.805,6.029,13.3010,4.59994,2469.937,2019-11-05T02:18:00Z
2019-11-05T00:20:37Z,42.805,6.029,13.3004,4.59984,2469.96,2019-11-05T02:21:04Z
2019-11-05T00:23:40Z,42.805,6.029,13.3016,4.59983,2469.96,2019-11-05T02:24:07Z
2019-11-05T00:26:43Z,42.805,6.029,13.3021,4.59996,2469.947,2019-11-05T02:27:10Z
2019-11-05T00:29:46Z,42.805,6.029,13.3046,4.59985,2469.984,2019-11-05T02:30:13Z
2019-11-05T00:32:50Z,42.805,6.029,13.3053,4.60005,2469.947,2019-11-05T02:33:17Z
2019-11-05T00:35:53Z,42.805,6.029,13.3028,4.59989,2469.937,2019-11-05T02:36:20Z
2019-11-05T00:38:56Z,42.805,6.029,13.3017,4.59987,2469.937,2019-11-05T02:39:23Z
2019-11-05T00:41:59Z,42.805,6.029,13.3012,4.59988,2469.947,2019-11-05T02:42:26Z
2019-11-05T00:45:03Z,42.805,6.029,13.3013,4.60009,2469.923,2019-11-05T02:45:30Z
2019-11-05T00:48:06Z,42.805,6.029,13.3014,4.60009,2469.96,2019-11-05T02:48:33Z
2019-11-05T00:51:09Z,42.805,6.029,13.3023,4.59999,2469.96,2019-11-05T02:51:36Z
2019-11-05T00:54:12Z,42.805,6.029,13.3018,4.59996,2469.914,2019-11-05T02:54:39Z
2019-11-05T00:57:15Z,42.805,6.029,13.3024,4.60003,2469.96,2019-11-05T02:57:42Z
2019-11-05T01:00:19Z,42.805,6.029,13.3042,4.60007,2469.937,2019-11-05T03:00:46Z
2019-11-05T01:03:22Z,42.805,6.029,13.3024,4.60034,2469.947,2019-11-05T03:03:49Z
2019-11-05T01:06:25Z,42.805,6.029,13.3020,4.60001,2469.96,2019-11-05T03:06:52Z
2019-11-05T01:09:28Z,42.805,6.029,13.3020,4.60000,2469.923,2019-11-05T03:09:55Z
2019-11-05T01:12:31Z,42.805,6.029,13.3016,4.59991,2469.937,2019-11-05T03:12:58Z
2019-11-05T01:15:35Z,42.805,6.029,13.3007,4.59999,2469.937,2019-11-05T03:16:02Z
2019-11-05T01:18:38Z,42.805,6.029,13.3015,4.60000,2469.937,2019-11-05T03:19:05Z
2019-11-05T01:21:41Z,42.805,6.029,13.2990,4.60011,2469.914,2019-11-05T03:22:08Z
2019-11-05T01:24:44Z,42.805,6.029,13.3015,4.59999,2469.96,2019-11-05T03:25:11Z
2019-11-05T01:27:47Z,42.805,6.029,13.2967,4.59982,2469.937,2019-11-05T03:28:14Z
2019-11-05T01:30:51Z,42.805,6.029,13.2993,4.59990,2469.937,2019-11-05T03:31:18Z
2019-11-05T01:33:54Z,42.805,6.029,13.3038,4.60007,2469.923,2019-11-05T03:34:21Z
2019-11-05T01:36:57Z,42.805,6.029,13.2966,4.60034,2469.974,2019-11-05T03:37:24Z
2019-11-05T01:40:00Z,42.805,6.029,13.2964,4.60011,2469.96,2019-11-05T03:40:27Z
2019-11-05T01:43:03Z,42.805,6.029,13.2985,4.59998,2469.96,2019-11-05T03:43:30Z
2019-11-05T01:46:07Z,42.805,6.029,13.3016,4.60015,2469.947,2019-11-05T03:46:34Z
2019-11-05T01:49:10Z,42.805,6.029,13.2978,4.60003,2469.947,2019-11-05T03:49:37Z
2019-11-05T01:52:13Z,42.805,6.029,13.3029,4.60037,2469.923,2019-11-05T03:52:40Z
2019-11-05T01:55:16Z,42.805,6.029,13.3027,4.60014,2469.9,2019-11-05T03:55:43Z
2019-11-05T01:58:20Z,42.805,6.029,13.2998,4.59996,2469.937,2019-11-05T03:58:47Z
2019-11-05T02:01:23Z,42.805,6.029,13.3005,4.60045,2469.96,2019-11-05T04:01:50Z
2019-11-05T02:04:26Z,42.805,6.029,13.3009,4.60001,2469.914,2019-11-05T04:04:53Z
2019-11-05T02:07:29Z,42.805,6.029,13.3000,4.60001,2469.9,2019-11-05T04:07:56Z
2019-11-05T02:10:33Z,42.805,6.029,13.2966,4.60011,2469.937,2019-11-05T04:11:00Z
2019-11-05T02:13:36Z,42.805,6.029,13.2957,4.59982,2469.9,2019-11-05T04:14:03Z
2019-11-05T02:16:39Z,42.805,6.029,13.2956,4.59966,2469.96,2019-11-05T04:17:06Z
2019-11-05T02:19:42Z,42.805,6.029,13.2961,4.59964,2469.9,2019-11-05T04:20:09Z
2019-11-05T02:22:46Z,42.805,6.029,13.2958,4.59962,2469.923,2019-11-05T04:23:12Z
2019-11-05T02:25:49Z,42.805,6.029,13.2957,4.59961,2469.9,2019-11-05T04:26:16Z
2019-11-05T02:28:52Z,42.805,6.029,13.2959,4.59964,2469.96,2019-11-05T04:29:19Z
2019-11-05T02:31:55Z,42.805,6.029,13.2958,4.59963,2469.937,2019-11-05T04:32:22Z
2019-11-05T02:34:58Z,42.805,6.029,13.2958,4.59966,2469.923,2019-11-05T04:35:25Z
2019-11-05T02:38:02Z,42.805,6.029,13.2958,4.59964,2469.914,2019-11-05T04:38:29Z
2019-11-05T02:41:05Z,42.805,6.029,13.2953,4.59964,2469.947,2019-11-05T04:41:32Z
2019-11-05T02:44:08Z,42.805,6.029,13.2958,4.59961,2469.9,2019-11-05T04:44:35Z
2019-11-05T02:47:12Z,42.805,6.029,13.2963,4.59962,2469.914,2019-11-05T04:47:39Z
2019-11-05T02:50:15Z,42.805,6.029,13.2961,4.59962,2469.914,2019-11-05T04:50:42Z
2019-11-05T02:53:18Z,42.805,6.029,13.2958,4.59965,2469.96,2019-11-05T04:53:45Z
2019-11-05T02:56:21Z,42.805,6.029,13.2957,4.59961,2469.923,2019-11-05T04:56:48Z
2019-11-05T02:59:24Z,42.805,6.029,13.2961,4.59961,2469.937,2019-11-05T04:59:51Z
2019-11-05T03:02:28Z,42.805,6.029,13.2957,4.59961,2469.937,2019-11-05T05:02:55Z
2019-11-05T03:05:31Z,42.805,6.029,13.2961,4.59962,2469.923,2019-11-05T05:05:58Z
2019-11-05T03:08:34Z,42.805,6.029,13.2961,4.59961,2469.937,2019-11-05T05:09:01Z
2019-11-05T03:11:37Z,42.805,6.029,13.2959,4.59961,2469.96,2019-11-05T05:12:04Z
2019-11-05T03:14:40Z,42.805,6.029,13.2958,4.59962,2469.937,2019-11-05T05:15:07Z
2019-11-05T03:17:44Z,42.805,6.029,13.2959,4.59962,2469.96,2019-11-05T05:18:11Z
2019-11-05T03:20:47Z,42.805,6.029,13.2958,4.59962,2469.96,2019-11-05T05:21:14Z
2019-11-05T03:23:50Z,42.805,6.029,13.2960,4.59961,2469.947,2019-11-05T05:24:17Z
2019-11-05T03:26:53Z,42.805,6.029,13.2953,4.59961,2469.923,2019-11-05T05:27:20Z
2019-11-05T03:29:57Z,42.805,6.029,13.2961,4.59963,2469.923,2019-11-05T05:30:24Z
2019-11-05T03:33:00Z,42.805,6.029,13.2958,4.59963,2469.96,2019-11-05T05:33:27Z
2019-11-05T03:36:03Z,42.805,6.029,13.2957,4.59962,2469.947,2019-11-05T05:36:30Z
2019-11-05T03:39:06Z,42.805,6.029,13.2957,4.59959,2469.937,2019-11-05T05:39:33Z
2019-11-05T03:42:10Z,42.805,6.029,13.2963,4.59961,2469.947,2019-11-05T05:42:36Z
2019-11-05T03:45:13Z,42.805,6.029,13.2958,4.59960,2469.923,2019-11-05T05:45:40Z
2019-11-05T03:48:16Z,42.805,6.029,13.2957,4.59960,2469.947,2019-11-05T05:48:43Z
2019-11-05T03:51:19Z,42.805,6.029,13.2958,4.59961,2469.923,2019-11-05T05:51:46Z
2019-11-05T03:54:23Z,42.805,6.029,13.2957,4.59960,2469.923,2019-11-05T05:54:50Z
2019-11-05T03:57:26Z,42.805,6.029,13.2961,4.59961,2469.923,2019-11-05T05:57:53Z
2019-11-05T04:00:29Z,42.805,6.029,13.2958,4.59961,2469.923,2019-11-05T06:00:56Z
2019-11-05T04:03:32Z,42.805,6.029,13.2958,4.59961,2469.97,2019-11-05T06:03:59Z
2019-11-05T04:06:35Z,42.805,6.029,13.2957,4.59964,2469.914,2019-11-05T06:07:02Z
2019-11-05T04:09:39Z,42.805,6.029,13.2958,4.59964,2469.914,2019-11-05T06:10:06Z
2019-11-05T04:12:42Z,42.805,6.029,13.2957,4.59965,2469.937,2019-11-05T06:13:09Z
2019-11-05T04:15:45Z,42.805,6.029,13.2961,4.59960,2469.914,2019-11-05T06:16:12Z
2019-11-05T04:18:49Z,42.805,6.029,13.2960,4.59960,2469.947,2019-11-05T06:19:16Z
2019-11-05T04:21:52Z,42.805,6.029,13.2961,4.59960,2469.937,2019-11-05T06:22:19Z
2019-11-05T04:24:55Z,42.805,6.029,13.2959,4.59962,2469.947,2019-11-05T06:25:22Z
2019-11-05T04:27:58Z,42.805,6.029,13.2960,4.59958,2469.96,2019-11-05T06:28:25Z
2019-11-05T04:31:01Z,42.805,6.029,13.2961,4.59961,2469.947,2019-11-05T06:31:28Z
2019-11-05T04:34:05Z,42.805,6.029,13.2958,4.59961,2469.937,2019-11-05T06:34:32Z
2019-11-05T04:37:08Z,42.805,6.029,13.2961,4.59962,2469.937,2019-11-05T06:37:35Z
2019-11-05T04:40:11Z,42.805,6.029,13.2957,4.59960,2469.96,2019-11-05T06:40:38Z
2019-11-05T04:43:14Z,42.805,6.029,13.2956,4.59958,2469.914,2019-11-05T06:43:41Z
2019-11-05T04:46:17Z,42.805,6.029,13.2958,4.59958,2469.923,2019-11-05T06:46:44Z
2019-11-05T04:49:21Z,42.805,6.029,13.2961,4.59958,2469.9,2019-11-05T06:49:48Z
2019-11-05T04:52:24Z,42.805,6.029,13.2955,4.59958,2469.923,2019-11-05T06:52:51Z
2019-11-05T04:55:27Z,42.805,6.029,13.2958,4.59961,2469.914,2019-11-05T06:55:54Z
2019-11-05T04:58:30Z,42.805,6.029,13.2961,4.59957,2469.947,2019-11-05T06:58:57Z
2019-11-05T05:01:33Z,42.805,6.029,13.2958,4.59961,2469.96,2019-11-05T07:02:00Z
2019-11-05T05:04:37Z,42.805,6.029,13.2961,4.59961,2469.937,2019-11-05T07:05:04Z
2019-11-05T05:07:40Z,42.805,6.029,13.2959,4.59961,2469.9,2019-11-05T07:08:07Z
2019-11-05T05:10:43Z,42.805,6.029,13.2957,4.59958,2469.9,2019-11-05T07:11:10Z
2019-11-05T05:13:46Z,42.805,6.029,13.2955,4.59958,2469.914,2019-11-05T07:14:13Z
2019-11-05T05:16:50Z,42.805,6.029,13.2956,4.59958,2469.923,2019-11-05T07:17:17Z
2019-11-05T05:19:53Z,42.805,6.029,13.2955,4.59957,2469.96,2019-11-05T07:20:20Z
2019-11-05T05:22:56Z,42.805,6.029,13.2958,4.59958,2469.937,2019-11-05T07:23:23Z
2019-11-05T05:25:59Z,42.805,6.029,13.2958,4.59956,2469.9,2019-11-05T07:26:26Z
2019-11-05T05:29:02Z,42.805,6.029,13.2957,4.59958,2469.937,2019-11-05T07:29:29Z
2019-11-05T05:32:06Z,42.805,6.029,13.2957,4.59957,2469.937,2019-11-05T07:32:33Z
2019-11-05T05:35:09Z,42.805,6.029,13.2957,4.59961,2469.923,2019-11-05T07:35:36Z
2019-11-05T05:38:12Z,42.805,6.029,13.2956,4.59958,2469.9,2019-11-05T07:38:39Z
2019-11-05T05:41:15Z,42.805,6.029,13.2959,4.59961,2469.923,2019-11-05T07:41:42Z
2019-11-05T05:44:18Z,42.805,6.029,13.2961,4.59961,2469.923,2019-11-05T07:44:45Z
2019-11-05T05:47:22Z,42.805,6.029,13.2961,4.59957,2469.937,2019-11-05T07:47:49Z
2019-11-05T05:50:25Z,42.805,6.029,13.2957,4.59956,2469.9,2019-11-05T07:50:52Z
2019-11-05T05:53:28Z,42.805,6.029,13.2960,4.59964,2469.923,2019-11-05T07:53:55Z
2019-11-05T05:56:31Z,42.805,6.029,13.2959,4.59958,2469.923,2019-11-05T07:56:58Z
2019-11-05T05:59:35Z,42.805,6.029,13.2953,4.59956,2469.923,2019-11-05T08:00:02Z
2019-11-05T06:02:38Z,42.805,6.029,13.2956,4.59957,2469.9,2019-11-05T08:03:05Z
2019-11-05T06:05:41Z,42.805,6.029,13.2957,4.59959,2469.914,2019-11-05T08:06:08Z
2019-11-05T06:08:44Z,42.805,6.029,13.2958,4.59956,2469.923,2019-11-05T08:09:11Z
2019-11-05T06:11:47Z,42.805,6.029,13.2958,4.59957,2469.937,2019-11-05T08:12:14Z
2019-11-05T06:14:51Z,42.805,6.029,13.2953,4.59958,2469.923,2019-11-05T08:15:18Z
2019-11-05T06:17:54Z,42.805,6.029,13.2954,4.59956,2469.9,2019-11-05T08:18:21Z
2019-11-05T06:20:57Z,42.805,6.029,13.2958,4.59955,2469.914,2019-11-05T08:21:24Z
2019-11-05T06:24:00Z,42.805,6.029,13.2956,4.59956,2469.909,2019-11-05T08:24:27Z
2019-11-05T06:27:03Z,42.805,6.029,13.2961,4.59957,2469.914,2019-11-05T08:27:30Z
2019-11-05T06:30:07Z,42.805,6.029,13.2960,4.59956,2469.9,2019-11-05T08:30:34Z
2019-11-05T06:33:10Z,42.805,6.029,13.2958,4.59958,2469.914,2019-11-05T08:33:37Z
2019-11-05T06:36:13Z,42.805,6.029,13.2958,4.59958,2469.937,2019-11-05T08:36:40Z
2019-11-05T06:39:16Z,42.805,6.029,13.2957,4.59958,2469.9,2019-11-05T08:39:43Z
2019-11-05T06:42:19Z,42.805,6.029,13.2963,4.59958,2469.923,2019-11-05T08:42:46Z
2019-11-05T06:45:23Z,42.805,6.029,13.2961,4.59958,2469.914,2019-11-05T08:45:50Z
2019-11-05T06:48:26Z,42.805,6.029,13.2958,4.59958,2469.923,2019-11-05T08:48:53Z
2019-11-05T06:51:29Z,42.805,6.029,13.2959,4.59956,2469.9,2019-11-05T08:51:56Z
2019-11-05T06:54:32Z,42.805,6.029,13.2958,4.59958,2469.914,2019-11-05T08:54:59Z
2019-11-05T06:57:36Z,42.805,6.029,13.2954,4.59958,2469.9,2019-11-05T08:58:02Z
2019-11-05T07:00:39Z,42.805,6.029,13.2957,4.59959,2469.9,2019-11-05T09:01:06Z
2019-11-05T07:03:42Z,42.805,6.029,13.2963,4.59960,2469.96,2019-11-05T09:04:09Z
2019-11-05T07:06:45Z,42.805,6.029,13.2957,4.59956,2469.923,2019-11-05T09:07:12Z
2019-11-05T07:09:48Z,42.805,6.029,13.2958,4.59958,2469.923,2019-11-05T09:10:15Z
2019-11-05T07:12:52Z,42.805,6.029,13.2961,4.59956,2469.937,2019-11-05T09:13:19Z
2019-11-05T07:15:55Z,42.805,6.029,13.2956,4.59957,2469.923,2019-11-05T09:16:22Z
2019-11-05T07:18:58Z,42.805,6.029,13.2958,4.59957,2469.9,2019-11-05T09:19:25Z
2019-11-05T07:22:01Z,42.805,6.029,13.2959,4.59956,2469.923,2019-11-05T09:22:28Z
2019-11-05T07:25:04Z,42.805,6.029,13.2954,4.59958,2469.937,2019-11-05T09:25:31Z
2019-11-05T07:28:08Z,42.805,6.029,13.2956,4.59958,2469.923,2019-11-05T09:28:35Z
2019-11-05T07:31:11Z,42.805,6.029,13.2958,4.59956,2469.937,2019-11-05T09:31:38Z
2019-11-05T07:34:14Z,42.805,6.029,13.2958,4.59957,2469.923,2019-11-05T09:34:41Z
2019-11-05T07:37:17Z,42.805,6.029,13.2961,4.59958,2469.937,2019-11-05T09:37:44Z
2019-11-05T07:40:20Z,42.805,6.029,13.2956,4.59957,2469.947,2019-11-05T09:40:47Z
2019-11-05T07:43:24Z,42.805,6.029,13.2958,4.59957,2469.937,2019-11-05T09:43:51Z
2019-11-05T07:46:27Z,42.805,6.029,13.2958,4.59958,2469.947,2019-11-05T09:46:54Z
2019-11-05T07:49:30Z,42.805,6.029,13.2957,4.59956,2469.96,2019-11-05T09:49:57Z
2019-11-05T07:52:33Z,42.805,6.029,13.2958,4.59960,2469.947,2019-11-05T09:53:00Z
2019-11-05T07:55:36Z,42.805,6.029,13.2960,4.59957,2469.937,2019-11-05T09:56:03Z
2019-11-05T07:58:40Z,42.805,6.029,13.2958,4.59956,2469.9,2019-11-05T09:59:07Z
2019-11-05T08:01:43Z,42.805,6.029,13.2959,4.59958,2469.937,2019-11-05T10:02:10Z
2019-11-05T08:04:46Z,42.805,6.029,13.2960,4.59958,2469.923,2019-11-05T10:05:13Z
2019-11-05T08:07:49Z,42.805,6.029,13.2961,4.59961,2469.937,2019-11-05T10:08:16Z
2019-11-05T08:10:53Z,42.805,6.029,13.2961,4.59961,2469.914,2019-11-05T10:11:20Z
2019-11-05T08:13:56Z,42.805,6.029,13.2960,4.59958,2469.947,2019-11-05T10:14:23Z
2019-11-05T08:16:59Z,42.805,6.029,13.2954,4.59956,2469.923,2019-11-05T10:17:26Z
2019-11-05T08:20:02Z,42.805,6.029,13.2958,4.59957,2469.923,2019-11-05T10:20:29Z
2019-11-05T08:23:06Z,42.805,6.029,13.2955,4.59956,2469.923,2019-11-05T10:23:33Z
2019-11-05T08:26:09Z,42.805,6.029,13.2961,4.59957,2469.947,2019-11-05T10:26:36Z
2019-11-05T08:29:12Z,42.805,6.029,13.2957,4.59961,2469.96,2019-11-05T10:29:39Z
2019-11-05T08:32:15Z,42.805,6.029,13.2959,4.59956,2469.937,2019-11-05T10:32:42Z
2019-11-05T08:35:19Z,42.805,6.029,13.2958,4.59959,2469.923,2019-11-05T10:35:46Z
2019-11-05T08:38:22Z,42.805,6.029,13.2959,4.59959,2469.937,2019-11-05T10:38:49Z
2019-11-05T08:41:25Z,42.805,6.029,13.2961,4.59958,2469.923,2019-11-05T10:41:52Z
2019-11-05T08:44:28Z,42.805,6.029,13.2964,4.59956,2469.947,2019-11-05T10:44:55Z
2019-11-05T08:47:31Z,42.805,6.029,13.2962,4.59960,2469.937,2019-11-05T10:47:58Z
2019-11-05T08:50:35Z,42.805,6.029,13.2959,4.59961,2469.947,2019-11-05T10:51:02Z
2019-11-05T08:53:38Z,42.805,6.029,13.2959,4.59966,2469.947,2019-11-05T10:54:05Z
2019-11-05T08:56:41Z,42.805,6.029,13.2959,4.59959,2469.923,2019-11-05T10:57:08Z
2019-11-05T08:59:44Z,42.805,6.029,13.2958,4.59958,2469.96,2019-11-05T11:00:11Z
2019-11-05T09:02:47Z,42.805,6.029,13.2956,4.59960,2469.947,2019-11-05T11:03:14Z
2019-11-05T09:05:51Z,42.805,6.029,13.2959,4.59964,2469.96,2019-11-05T11:06:18Z
2019-11-05T09:08:54Z,42.805,6.029,13.2967,4.59957,2469.937,2019-11-05T11:09:21Z
2019-11-05T09:11:57Z,42.805,6.029,13.2962,4.59958,2469.937,2019-11-05T11:12:24Z
2019-11-05T09:15:00Z,42.805,6.029,13.2961,4.59959,2469.937,2019-11-05T11:15:27Z
2019-11-05T09:18:03Z,42.805,6.029,13.2958,4.59958,2469.96,2019-11-05T11:18:30Z
2019-11-05T09:21:07Z,42.805,6.029,13.2957,4.59957,2469.923,2019-11-05T11:21:34Z
2019-11-05T09:24:10Z,42.805,6.029,13.2957,4.59957,2469.937,2019-11-05T11:24:37Z
2019-11-05T09:27:13Z,42.805,6.029,13.2957,4.59956,2469.937,2019-11-05T11:27:40Z
2019-11-05T09:30:16Z,42.805,6.029,13.2961,4.59958,2469.937,2019-11-05T11:30:43Z
2019-11-05T09:33:19Z,42.805,6.029,13.2961,4.59957,2469.947,2019-11-05T11:33:46Z
2019-11-05T09:36:23Z,42.805,6.029,13.2961,4.59958,2469.947,2019-11-05T11:36:50Z
2019-11-05T09:39:26Z,42.805,6.029,13.2960,4.59956,2469.923,2019-11-05T11:39:53Z
2019-11-05T09:42:29Z,42.805,6.029,13.2961,4.59958,2469.96,2019-11-05T11:42:56Z
2019-11-05T09:45:32Z,42.805,6.029,13.2960,4.59960,2469.947,2019-11-05T11:45:59Z
2019-11-05T09:48:35Z,42.805,6.029,13.2961,4.59957,2469.947,2019-11-05T11:49:02Z
2019-11-05T09:51:39Z,42.805,6.029,13.2959,4.59956,2469.96,2019-11-05T11:52:06Z
2019-11-05T09:54:42Z,42.805,6.029,13.2962,4.59958,2469.96,2019-11-05T11:55:09Z
2019-11-05T09:57:45Z,42.805,6.029,13.2957,4.59956,2469.947,2019-11-05T11:58:12Z
2019-11-05T10:00:48Z,42.805,6.029,13.2961,4.59956,2469.947,2019-11-05T12:01:15Z
2019-11-05T10:03:52Z,42.805,6.029,13.2957,4.59961,2469.97,2019-11-05T12:04:19Z
2019-11-05T10:06:55Z,42.805,6.029,13.2959,4.59957,2469.923,2019-11-05T12:07:22Z
2019-11-05T10:09:58Z,42.805,6.029,13.2960,4.59958,2469.993,2019-11-05T12:10:25Z
2019-11-05T10:13:01Z,42.805,6.029,13.2960,4.59957,2469.97,2019-11-05T12:13:28Z
2019-11-05T10:16:04Z,42.805,6.029,13.2954,4.59957,2469.97,2019-11-05T12:16:31Z
2019-11-05T10:19:08Z,42.805,6.029,13.2958,4.59958,2469.96,2019-11-05T12:19:35Z
2019-11-05T10:22:11Z,42.805,6.029,13.2958,4.59958,2469.97,2019-11-05T12:22:38Z
2019-11-05T10:25:14Z,42.805,6.029,13.2967,4.59959,2469.984,2019-11-05T12:25:41Z
2019-11-05T10:28:17Z,42.805,6.029,13.2961,4.59960,2469.97,2019-11-05T12:28:44Z
2019-11-05T10:31:21Z,42.805,6.029,13.2959,4.59957,2469.984,2019-11-05T12:31:48Z
2019-11-05T10:34:24Z,42.805,6.029,13.2960,4.59958,2469.993,2019-11-05T12:34:51Z
2019-11-05T10:37:27Z,42.805,6.029,13.2957,4.59960,2469.993,2019-11-05T12:37:54Z
2019-11-05T10:40:30Z,42.805,6.029,13.2958,4.59957,2469.97,2019-11-05T12:40:57Z
2019-11-05T10:43:33Z,42.805,6.029,13.2962,4.59959,2469.96,2019-11-05T12:44:00Z
2019-11-05T10:46:37Z,42.805,6.029,13.2958,4.59957,2469.993,2019-11-05T12:47:04Z
2019-11-05T10:49:40Z,42.805,6.029,13.2960,4.59958,2469.993,2019-11-05T12:50:07Z
2019-11-05T10:52:43Z,42.805,6.029,13.2960,4.59958,2469.984,2019-11-05T12:53:10Z
2019-11-05T10:55:46Z,42.805,6.029,13.2959,4.59957,2469.993,2019-11-05T12:56:13Z
2019-11-05T10:58:50Z,42.805,6.029,13.2959,4.59957,2470.017,2019-11-05T12:59:17Z
2019-11-05T11:01:53Z,42.805,6.029,13.2957,4.59962,2469.993,2019-11-05T13:02:20Z
2019-11-05T11:04:56Z,42.805,6.029,13.2958,4.59957,2469.979,2019-11-05T13:05:23Z
2019-11-05T11:08:00Z,42.805,6.029,13.2959,4.59956,2469.993,2019-11-05T13:08:27Z
2019-11-05T11:11:03Z,42.805,6.029,13.2955,4.59956,2469.97,2019-11-05T13:11:30Z
2019-11-05T11:14:06Z,42.805,6.029,13.2959,4.59957,2469.97,2019-11-05T13:14:33Z
2019-11-05T11:17:09Z,42.805,6.029,13.2958,4.59957,2470.007,2019-11-05T13:17:36Z
2019-11-05T11:20:12Z,42.805,6.029,13.2960,4.59957,2470.007,2019-11-05T13:20:39Z
2019-11-05T11:23:16Z,42.805,6.029,13.2958,4.59957,2469.993,2019-11-05T13:23:43Z
2019-11-05T11:26:19Z,42.805,6.029,13.2961,4.59958,2470.007,2019-11-05T13:26:46Z
2019-11-05T11:29:22Z,42.805,6.029,13.2962,4.59957,2469.993,2019-11-05T13:29:49Z
2019-11-05T11:32:25Z,42.805,6.029,13.2960,4.59958,2469.993,2019-11-05T13:32:52Z
2019-11-05T11:35:28Z,42.805,6.029,13.2958,4.59959,2469.993,2019-11-05T13:35:55Z
2019-11-05T11:38:32Z,42.805,6.029,13.2958,4.59957,2470.007,2019-11-05T13:38:59Z
2019-11-05T11:41:35Z,42.805,6.029,13.2956,4.59956,2470.007,2019-11-05T13:42:02Z
2019-11-05T11:44:38Z,42.805,6.029,13.2958,4.59961,2470.017,2019-11-05T13:45:05Z
2019-11-05T11:47:41Z,42.805,6.029,13.2957,4.59961,2469.993,2019-11-05T13:48:08Z
2019-11-05T11:50:45Z,42.805,6.029,13.2961,4.59958,2469.993,2019-11-05T13:51:12Z
2019-11-05T11:53:48Z,42.805,6.029,13.2962,4.59959,2470.03,2019-11-05T13:54:15Z
2019-11-05T11:56:51Z,42.805,6.029,13.2961,4.59958,2469.97,2019-11-05T13:57:18Z
2019-11-05T11:59:55Z,42.805,6.029,13.2960,4.59961,2470.007,2019-11-05T14:00:22Z
2019-11-05T12:02:58Z,42.805,6.029,13.2958,4.59958,2469.993,2019-11-05T14:03:25Z
2019-11-05T12:06:01Z,42.805,6.029,13.2959,4.59956,2470.04,2019-11-05T14:06:28Z
2019-11-05T12:09:04Z,42.805,6.029,13.2957,4.59959,2470.007,2019-11-05T14:09:31Z
2019-11-05T12:12:08Z,42.805,6.029,13.2961,4.59957,2470.017,2019-11-05T14:12:35Z
2019-11-05T12:15:11Z,42.805,6.029,13.2958,4.59958,2470.03,2019-11-05T14:15:38Z
2019-11-05T12:18:14Z,42.805,6.029,13.2961,4.59958,2470.017,2019-11-05T14:18:41Z
2019-11-05T12:21:17Z,42.805,6.029,13.2958,4.59959,2470.017,2019-11-05T14:21:44Z
2019-11-05T12:24:20Z,42.805,6.029,13.2958,4.59958,2469.993,2019-11-05T14:24:47Z
2019-11-05T12:27:24Z,42.805,6.029,13.2954,4.59958,2470.04,2019-11-05T14:27:51Z
2019-11-05T12:30:27Z,42.805,6.029,13.2957,4.59958,2470.017,2019-11-05T14:30:54Z
2019-11-05T12:33:30Z,42.805,6.029,13.2963,4.59959,2469.993,2019-11-05T14:33:57Z
2019-11-05T12:36:33Z,42.805,6.029,13.2960,4.59958,2470.017,2019-11-05T14:37:00Z
2019-11-05T12:39:36Z,42.805,6.029,13.2958,4.59958,2470.053,2019-11-05T14:40:03Z
2019-11-05T12:42:40Z,42.805,6.029,13.2962,4.59959,2470.03,2019-11-05T14:43:07Z
2019-11-05T12:45:43Z,42.805,6.029,13.2961,4.59962,2469.993,2019-11-05T14:46:10Z
2019-11-05T12:48:46Z,42.805,6.029,13.2958,4.59960,2470.03,2019-11-05T14:49:13Z
2019-11-05T12:51:49Z,42.805,6.029,13.2965,4.59963,2470.04,2019-11-05T14:52:16Z
2019-11-05T12:54:53Z,42.805,6.029,13.2961,4.59959,2470.017,2019-11-05T14:55:20Z
2019-11-05T12:57:56Z,42.805,6.029,13.2963,4.59962,2470.04,2019-11-05T14:58:23Z
2019-11-05T13:00:59Z,42.805,6.029,13.2958,4.59960,2470.017,2019-11-05T15:01:26Z
2019-11-05T13:04:02Z,42.805,6.029,13.2961,4.59964,2470.017,2019-11-05T15:04:29Z
2019-11-05T13:07:05Z,42.805,6.029,13.2962,4.59961,2470.017,2019-11-05T15:07:32Z
2019-11-05T13:10:09Z,42.805,6.029,13.2960,4.59960,2470.017,2019-11-05T15:10:36Z
2019-11-05T13:13:12Z,42.805,6.029,13.2959,4.59973,2470.04,2019-11-05T15:13:39Z
2019-11-05T13:16:15Z,42.805,6.029,13.2980,4.59973,2470.03,2019-11-05T15:16:42Z
2019-11-05T13:19:18Z,42.805,6.029,13.2971,4.59983,2470.04,2019-11-05T15:19:45Z
2019-11-05T13:22:22Z,42.805,6.029,13.2992,4.59988,2470.017,2019-11-05T15:22:49Z
2019-11-05T13:25:25Z,42.805,6.029,13.2963,4.59981,2470.017,2019-11-05T15:25:52Z
2019-11-05T13:28:28Z,42.805,6.029,13.2994,4.59979,2470.017,2019-11-05T15:28:55Z
2019-11-05T13:31:31Z,42.805,6.029,13.2990,4.59978,2470.017,2019-11-05T15:31:58Z
2019-11-05T13:34:35Z,42.805,6.029,13.2982,4.59996,2470.053,2019-11-05T15:35:02Z
2019-11-05T13:37:38Z,42.805,6.029,13.2964,4.59988,2470.04,2019-11-05T15:38:05Z
2019-11-05T13:40:41Z,42.805,6.029,13.2979,4.59968,2470.04,2019-11-05T15:41:08Z
2019-11-05T13:43:44Z,42.805,6.029,13.2981,4.59982,2470.077,2019-11-05T15:44:11Z
2019-11-05T13:46:47Z,42.805,6.029,13.2968,4.60001,2470.017,2019-11-05T15:47:14Z
2019-11-05T13:49:51Z,42.805,6.029,13.2993,4.59973,2470.04,2019-11-05T15:50:18Z
2019-11-05T13:52:54Z,42.805,6.029,13.2999,4.60046,2470.03,2019-11-05T15:53:21Z
2019-11-05T13:55:57Z,42.805,6.029,13.3000,4.60033,2470.04,2019-11-05T15:56:24Z
2019-11-05T13:59:00Z,42.805,6.029,13.3019,4.60016,2470.04,2019-11-05T15:59:27Z
2019-11-05T14:02:04Z,42.805,6.029,13.3037,4.60032,2470.053,2019-11-05T16:02:31Z
2019-11-05T14:05:07Z,42.805,6.029,13.2988,4.60037,2470.053,2019-11-05T16:05:34Z
2019-11-05T14:08:10Z,42.805,6.029,13.2989,4.60029,2470.04,2019-11-05T16:08:37Z
2019-11-05T14:11:13Z,42.805,6.029,13.3011,4.59985,2470.063,2019-11-05T16:11:40Z
2019-11-05T14:14:17Z,42.805,6.029,13.2997,4.60036,2470.017,2019-11-05T16:14:44Z
2019-11-05T14:17:20Z,42.805,6.029,13.3006,4.60031,2470.053,2019-11-05T16:17:47Z
2019-11-05T14:20:23Z,42.805,6.029,13.2997,4.60026,2470.053,2019-11-05T16:20:50Z
2019-11-05T14:23:26Z,42.805,6.029,13.3006,4.60024,2470.053,2019-11-05T16:23:53Z
2019-11-05T14:26:30Z,42.805,6.029,13.2986,4.60038,2470.053,2019-11-05T16:26:57Z
2019-11-05T14:29:33Z,42.805,6.029,13.3005,4.59987,2470.04,2019-11-05T16:30:00Z
2019-11-05T14:32:36Z,42.805,6.029,13.2979,4.60027,2470.1,2019-11-05T16:33:03Z
2019-11-05T14:35:39Z,42.805,6.029,13.2976,4.60028,2470.04,2019-11-05T16:36:06Z
2019-11-05T14:38:42Z,42.805,6.029,13.2990,4.60047,2470.063,2019-11-05T16:39:09Z
2019-11-05T14:41:46Z,42.805,6.029,13.2973,4.60044,2470.077,2019-11-05T16:42:13Z
2019-11-05T14:44:49Z,42.805,6.029,13.2986,4.60026,2470.04,2019-11-05T16:45:16Z
2019-11-05T14:47:52Z,42.805,6.029,13.2970,4.60014,2470.063,2019-11-05T16:48:19Z
2019-11-05T14:50:55Z,42.805,6.029,13.2986,4.60003,2470.017,2019-11-05T16:51:22Z
2019-11-05T14:53:59Z,42.805,6.029,13.2977,4.59999,2470.077,2019-11-05T16:54:26Z
2019-11-05T14:57:02Z,42.805,6.029,13.2991,4.59998,2470.063,2019-11-05T16:57:29Z
2019-11-05T15:00:05Z,42.805,6.029,13.2986,4.60002,2470.053,2019-11-05T17:00:32Z
2019-11-05T15:03:08Z,42.805,6.029,13.2998,4.60008,2470.063,2019-11-05T17:03:35Z